World > North America > United States > Mississippi

Rochdale, Mississippi Regional Weather

Lat: 34.10N, Lon: 90.85W
Wx Zone: MSZ018Web Search

Helpful Tip: Type the letters wx in the search engine next time you need to find us.

Feedback


°F Click to change Rochdale hourly weather to Imperial units.Click to change Rochdale hourly weather to Metric units. °C
Rochdale Weather Map
UTC Time: 4/16/2021, 15:25
Your Time:

Rochdale, MS Regional Weather

Expires:202104161600;;643273
ASUS44 KJAN 161510
RWRMS 

MISSISSIPPI HOURLY WEATHER ROUNDUP
NATIONAL WEATHER SERVICE JACKSON MS
1000 AM CDT FRI APR 16 2021

NOTE: "FAIR: INDICATES FEW OR NO CLOUDS BELOW 12,000 FEET WITH NO
SIGNIFICANT WEATHER AND/OR OBSTRUCTIONS TO VISIBILITY.


MSZ001>002-007>008-010>013-018>021-025>028-034>036-161600-
NORTHWEST MISSISSIPPI
  
CITY           SKY/WX    TMP DP  RH WIND       PRES   REMARKS
BATESVILLE     FAIR      57  43  58 CALM      29.99F                  
CLARKSDALE       N/A     57  41  54 E10       29.98F                  
CLEVELAND      FAIR      59  40  50 E10       29.96R                  
GREENWOOD      CLOUDY    60  43  53 E9        29.94F                  
GREENVILLE     CLOUDY    61  43  51 E10       29.94S                  
OLIVE BRANCH   PTSUNNY   55  39  54 E8        29.99F                  
OXFORD         PTSUNNY   55  39  54 E6        30.01F                  
TUNICA         PTSUNNY   54  39  58 NE10      29.99F                  
WINONA         FAIR      57  42  57 E5        29.95F                  
$$


SKY/WX - Weather  TMP - Temperature  DP - Dew Point  RH - Relative Humidity
WIND - Wind Direction/Speed PRES - Barometric Pressure VSB - Visibility
WCI - Wind Chill Index E13G22 Wind - East Wind 13 mph/Gusts of 22 mph